Lompoc, CA

9:05 AM PDT on May 27, 2017 (GMT -0700)
Lompoc

Weather History for KLPC - November, 2012

Change the Weather History Date:

Saturday, November 17, 2012

  Actual Average Record
Temperature  
Mean Temperature 60 °F -  
Max Temperature 64 °F 69 °F 89 °F (2008)
Min Temperature 55 °F 45 °F 25 °F (1958)
Degree Days  
Heating Degree Days 6    
Growing Degree Days 10 (Base 50)    
Moisture  
Dew Point 56 °F    
Average Humidity 86    
Maximum Humidity 94    
Minimum Humidity 72    
Precipitation  
Precipitation 0.37 in - - ()
Sea Level Pressure  
Sea Level Pressure 30.03 in    
Wind  
Wind Speed 8 mph (South)    
Max Wind Speed 16 mph    
Max Gust Speed 29 mph    
Visibility 8 miles    
Events      
Averages and records for this station are not official NWS values.
T = Trace of Precipitation, MM = Missing Value Source: NWS Daily Summary

Daily Weather History Graph

Daily Weather History Graph

Search for Another Location

Airport or City:

Trip Planner

Search our weather history database for the weather conditions in past years. The results will help you decide how hot, cold, wet, or windy it might be!

Date:

Astronomy

Nov. 17, 2012 Rise Set
Actual Time 6:38 AM PST 4:55 PM PST
Civil Twilight 6:11 AM PST 5:22 PM PST
Nautical Twilight 5:40 AM PST 5:52 PM PST
Astronomical Twilight 5:10 AM PST 6:22 PM PST
Moon 10:26 AM PST (11/17) 9:10 PM PST (11/17)
Length of Visible Light 11h 11m
Length of Day
10h 17m
Waxing Crescent, 21% of the Moon is Illuminated
Nov 17
Waxing Crescent
Nov 20
First Quarter
Nov 28
Full
Dec 6
Last Quarter
Dec 13
New

Hourly Weather History & Observations

Time (PST) Temp. Dew Point Humidity Pressure Visibility Wind Dir Wind Speed Gust Speed Precip Events Conditions
12:15 AM 62.6 °F 53.6 °F 72% 29.99 in 10.0 mi SE 15.0 mph 24.2 mph N/A   Overcast
12:35 AM 60.8 °F 55.4 °F 82% 29.99 in 10.0 mi SE 9.2 mph 21.9 mph N/A   Overcast
12:55 AM 60.8 °F 55.4 °F 82% 29.99 in 10.0 mi SE 10.4 mph 18.4 mph N/A   Overcast
1:15 AM 60.8 °F 55.4 °F 82% 29.98 in 10.0 mi SE 12.7 mph 20.7 mph N/A   Overcast
1:35 AM 60.8 °F 55.4 °F 82% 29.97 in 10.0 mi SE 11.5 mph 20.7 mph N/A   Overcast
1:55 AM 62.6 °F 55.4 °F 77% 29.96 in 10.0 mi SSE 15.0 mph 20.7 mph N/A   Overcast
2:15 AM 62.6 °F 55.4 °F 77% 29.97 in 10.0 mi SSE 12.7 mph 21.9 mph N/A   Overcast
2:35 AM 60.8 °F 55.4 °F 82% 29.97 in 7.0 mi SE 10.4 mph 20.7 mph 0.02 in   Mostly Cloudy
2:55 AM 60.8 °F 55.4 °F 82% 29.95 in 7.0 mi SE 16.1 mph 28.8 mph 0.08 in   Mostly Cloudy
3:15 AM 60.8 °F 55.4 °F 82% 29.95 in 7.0 mi SE 11.5 mph 19.6 mph 0.03 in   Overcast
3:35 AM 60.8 °F 55.4 °F 82% 29.95 in 8.0 mi ESE 5.8 mph - 0.06 in   Overcast
3:55 AM 60.8 °F 55.4 °F 82% 29.96 in 10.0 mi SE 6.9 mph 17.3 mph 0.07 in   Mostly Cloudy
4:15 AM 60.8 °F 55.4 °F 82% 29.96 in 9.0 mi SSE 11.5 mph 18.4 mph 0.02 in   Mostly Cloudy
4:35 AM 60.8 °F 55.4 °F 82% 29.97 in 7.0 mi SSE 8.1 mph - 0.06 in   Overcast
4:55 AM 60.8 °F 57.2 °F 88% 29.97 in 5.0 mi SSE 5.8 mph - 0.10 in   Overcast
5:15 AM 60.8 °F 57.2 °F 88% 29.97 in 5.0 mi SSE 5.8 mph - 0.02 in   Overcast
5:35 AM 60.8 °F 57.2 °F 88% 29.98 in 4.0 mi SSE 6.9 mph - 0.04 in   Overcast
5:55 AM 60.8 °F 57.2 °F 88% 29.98 in 8.0 mi South 4.6 mph - 0.05 in   Overcast
6:15 AM 60.8 °F 57.2 °F 88% 29.99 in 9.0 mi SE 4.6 mph - N/A   Overcast
6:35 AM 60.8 °F 57.2 °F 88% 29.99 in 5.0 mi SE 4.6 mph - 0.03 in   Overcast
6:55 AM 60.8 °F 57.2 °F 88% 30.00 in 10.0 mi SSE 11.5 mph - 0.03 in   Overcast
7:15 AM 60.8 °F 55.4 °F 82% 30.01 in 10.0 mi South 6.9 mph - N/A   Overcast
7:35 AM 60.8 °F 55.4 °F 82% 30.01 in 10.0 mi South 3.5 mph - N/A   Overcast
7:55 AM 60.8 °F 55.4 °F 82% 30.02 in 10.0 mi ESE 3.5 mph - N/A   Overcast
8:15 AM 60.8 °F 57.2 °F 88% 30.02 in 7.0 mi South 5.8 mph - N/A   Overcast
8:35 AM 62.6 °F 57.2 °F 82% 30.03 in 10.0 mi SSE 4.6 mph - N/A   Mostly Cloudy
8:55 AM 62.6 °F 57.2 °F 82% 30.04 in 10.0 mi ESE 6.9 mph - N/A   Overcast
9:15 AM 64.4 °F 57.2 °F 77% 30.04 in 10.0 mi SSE 8.1 mph - N/A   Overcast
9:35 AM 64.4 °F 57.2 °F 77% 30.05 in 10.0 mi SSE 9.2 mph - N/A   Overcast
9:55 AM 64.4 °F 57.2 °F 77% 30.05 in 10.0 mi SSE 10.4 mph 16.1 mph N/A   Overcast
10:15 AM 64.4 °F 57.2 °F 77% 30.05 in 10.0 mi South 10.4 mph - N/A   Overcast
10:35 AM 64.4 °F 57.2 °F 77% 30.05 in 10.0 mi South 9.2 mph - N/A   Mostly Cloudy
10:55 AM 64.4 °F 57.2 °F 77% 30.05 in 10.0 mi South 6.9 mph - N/A   Overcast
11:15 AM 64.4 °F 57.2 °F 77% 30.04 in 9.0 mi South 8.1 mph - N/A   Overcast
11:35 AM 64.4 °F 57.2 °F 77% 30.04 in 10.0 mi South 4.6 mph - N/A   Overcast
11:55 AM 62.6 °F 57.2 °F 82% 30.04 in 7.0 mi SSE 8.1 mph - N/A   Overcast
12:15 PM 62.6 °F 59.0 °F 88% 30.04 in 5.0 mi South 5.8 mph - N/A   Overcast
12:35 PM 62.6 °F 59.0 °F 88% 30.03 in 3.0 mi Calm Calm - N/A   Overcast
12:55 PM 62.6 °F 59.0 °F 88% 30.02 in 5.0 mi ESE 4.6 mph - N/A   Overcast
1:15 PM 62.6 °F 59.0 °F 88% 30.02 in 9.0 mi Calm Calm - N/A   Overcast
1:35 PM 64.4 °F 59.0 °F 83% 30.02 in 10.0 mi South 5.8 mph - N/A   Overcast
1:55 PM 62.6 °F 57.2 °F 82% 30.02 in 10.0 mi South 3.5 mph - N/A   Overcast
2:15 PM 62.6 °F 59.0 °F 88% 30.02 in 3.0 mi South 3.5 mph - N/A   Overcast
2:35 PM 62.6 °F 57.2 °F 82% 30.03 in 5.0 mi West 3.5 mph - 0.01 in   Overcast
2:55 PM 60.8 °F 59.0 °F 94% 30.03 in 8.0 mi West 10.4 mph - 0.01 in   Overcast
3:15 PM 60.8 °F 57.2 °F 88% 30.03 in 4.0 mi West 5.8 mph - 0.02 in   Overcast
3:35 PM 60.8 °F 57.2 °F 88% 30.04 in 3.0 mi West 6.9 mph - 0.03 in   Overcast
3:55 PM 60.8 °F 57.2 °F 88% 30.04 in 10.0 mi West 5.8 mph - 0.03 in   Overcast
4:15 PM 60.8 °F 57.2 °F 88% 30.04 in 10.0 mi West 6.9 mph - N/A   Overcast
4:35 PM 60.8 °F 57.2 °F 88% 30.04 in 10.0 mi West 9.2 mph - N/A   Overcast
4:55 PM 60.8 °F 57.2 °F 88% 30.04 in 10.0 mi West 4.6 mph - N/A   Overcast
5:15 PM 60.8 °F 57.2 °F 88% 30.05 in 10.0 mi West 5.8 mph - N/A   Overcast
5:35 PM 60.8 °F 57.2 °F 88% 30.05 in 10.0 mi West 3.5 mph - N/A   Overcast
5:55 PM 60.8 °F 57.2 °F 88% 30.06 in 10.0 mi West 4.6 mph - N/A   Overcast
6:15 PM 59.0 °F 55.4 °F 88% 30.06 in 8.0 mi West 3.5 mph - N/A   Mostly Cloudy
6:35 PM 59.0 °F 57.2 °F 94% 30.07 in 10.0 mi West 4.6 mph - N/A   Overcast
6:55 PM 59.0 °F 57.2 °F 94% 30.07 in 10.0 mi West 3.5 mph - N/A   Overcast
7:15 PM 59.0 °F 55.4 °F 88% 30.07 in 10.0 mi Calm Calm - N/A   Mostly Cloudy
7:35 PM 57.2 °F 55.4 °F 94% 30.07 in 10.0 mi Calm Calm - N/A   Overcast
7:55 PM 59.0 °F 55.4 °F 88% 30.07 in 10.0 mi Calm Calm - N/A   Overcast
8:15 PM 59.0 °F 55.4 °F 88% 30.08 in 10.0 mi Calm Calm - N/A   Overcast
8:35 PM 57.2 °F 55.4 °F 94% 30.08 in 10.0 mi Calm Calm - N/A   Overcast
8:55 PM 57.2 °F 55.4 °F 94% 30.09 in 10.0 mi Calm Calm - N/A   Overcast
9:15 PM 57.2 °F 55.4 °F 94% 30.10 in 10.0 mi Calm Calm - N/A   Mostly Cloudy
9:35 PM 57.2 °F 53.6 °F 88% 30.10 in 8.0 mi Calm Calm - N/A   Mostly Cloudy
9:55 PM 57.2 °F 55.4 °F 94% 30.11 in 8.0 mi Calm Calm - N/A   Overcast
10:15 PM 57.2 °F 55.4 °F 94% 30.11 in 9.0 mi NNE 3.5 mph - N/A   Overcast
10:35 PM 57.2 °F 55.4 °F 94% 30.12 in 10.0 mi Calm Calm - N/A   Mostly Cloudy
10:55 PM 57.2 °F 55.4 °F 94% 30.12 in 10.0 mi Calm Calm - N/A   Overcast
11:15 PM 55.4 °F 53.6 °F 94% 30.13 in 8.0 mi Calm Calm - N/A   Scattered Clouds
11:35 PM 55.4 °F 53.6 °F 94% 30.13 in 1.8 mi Calm Calm - N/A   Mostly Cloudy
11:55 PM 55.4 °F 53.6 °F 94% 30.13 in 0.8 mi Calm Calm - N/A   Overcast